Time,TemperatureF,DewpointF,PressureIn,WindDirection,WindDirectionDegrees,WindSpeedMPH,WindSpeedGustMPH,Humidity,HourlyPrecipIn,Conditions,Clouds,dailyrainin,SoftwareType,DateUTC
2013-04-01 00:02:00,41.0,20.0,29.63,ESE,108,10.0,21.0,43,0.00,,,0.00,,2013-03-31 23:02:00,
2013-04-01 00:12:00,41.0,20.0,29.63,ESE,108,10.0,21.0,43,0.00,,,0.00,,2013-03-31 23:12:00,
2013-04-01 00:21:00,41.0,20.0,29.63,SE,144,7.0,14.0,43,0.00,,,0.00,,2013-03-31 23:21:00,
2013-04-01 00:32:00,42.0,21.0,29.60,SE,129,9.0,17.0,43,0.00,,,0.00,,2013-03-31 23:32:00,
2013-04-01 00:42:00,42.0,21.0,29.60,SE,129,9.0,17.0,43,0.00,,,0.00,,2013-03-31 23:42:00,
2013-04-01 00:53:00,42.0,21.0,29.60,ESE,109,10.0,23.0,42,0.00,,,0.00,,2013-03-31 23:53:00,
2013-04-01 01:01:00,42.0,21.0,29.60,ESE,115,8.0,22.0,42,0.00,,,0.00,,2013-04-01 00:01:00,
2013-04-01 01:12:00,42.0,21.0,29.60,ESE,115,8.0,22.0,42,0.00,,,0.00,,2013-04-01 00:12:00,
2013-04-01 01:22:00,42.0,20.0,29.60,ESE,108,8.0,21.0,41,0.00,,,0.00,,2013-04-01 00:22:00,
2013-04-01 01:31:00,42.0,21.0,29.60,ESE,121,10.0,21.0,43,0.00,,,0.00,,2013-04-01 00:31:00,
2013-04-01 01:42:00,42.0,21.0,29.60,ESE,121,10.0,21.0,43,0.00,,,0.00,,2013-04-01 00:42:00,
2013-04-01 01:52:00,42.0,21.0,29.60,ENE,67,8.0,15.0,43,0.00,,,0.00,,2013-04-01 00:52:00,
2013-04-01 02:01:00,42.0,20.0,29.60,ESE,122,8.0,18.0,41,0.00,,,0.00,,2013-04-01 01:01:00,
2013-04-01 02:11:00,42.0,20.0,29.60,ESE,122,8.0,18.0,41,0.00,,,0.00,,2013-04-01 01:11:00,
2013-04-01 02:22:00,42.0,20.0,29.60,ESE,114,10.0,20.0,41,0.00,,,0.00,,2013-04-01 01:22:00,
2013-04-01 02:31:00,42.0,19.0,29.60,East,94,8.0,15.0,40,0.00,,,0.00,,2013-04-01 01:31:00,
2013-04-01 02:42:00,42.0,19.0,29.60,East,94,8.0,15.0,40,0.00,,,0.00,,2013-04-01 01:42:00,
2013-04-01 02:52:00,42.0,19.0,29.60,ESE,112,9.0,20.0,40,0.00,,,0.00,,2013-04-01 01:52:00,
2013-04-01 03:02:00,42.0,20.0,29.57,ESE,104,6.0,25.0,41,0.00,,,0.00,,2013-04-01 02:02:00,
2013-04-01 03:11:00,42.0,20.0,29.57,ESE,104,6.0,25.0,41,0.00,,,0.00,,2013-04-01 02:11:00,
2013-04-01 03:21:00,42.0,21.0,29.57,SSE,155,9.0,22.0,42,0.00,,,0.00,,2013-04-01 02:21:00,
2013-04-01 03:32:00,42.0,16.0,29.57,ESE,106,9.0,16.0,35,0.00,,,0.00,,2013-04-01 02:32:00,
2013-04-01 03:42:00,42.0,16.0,29.57,ESE,106,9.0,16.0,35,0.00,,,0.00,,2013-04-01 02:42:00,
2013-04-01 03:52:00,42.0,18.0,29.57,SE,129,10.0,20.0,38,0.00,,,0.00,,2013-04-01 02:52:00,
2013-04-01 04:02:00,42.0,19.0,29.57,NNE,28,8.0,15.0,40,0.00,,,0.00,,2013-04-01 03:02:00,
2013-04-01 04:11:00,42.0,19.0,29.57,NNE,28,8.0,15.0,40,0.00,,,0.00,,2013-04-01 03:11:00,
2013-04-01 04:22:00,42.0,19.0,29.57,NNE,28,8.0,15.0,40,0.00,,,0.00,,2013-04-01 03:22:00,
2013-04-01 04:32:00,42.0,19.0,29.54,ESE,110,7.0,17.0,40,0.00,,,0.00,,2013-04-01 03:32:00,
2013-04-01 04:42:00,42.0,19.0,29.54,ESE,110,7.0,17.0,40,0.00,,,0.00,,2013-04-01 03:42:00,
2013-04-01 04:53:00,41.0,19.0,29.54,ESE,116,6.0,14.0,40,0.00,,,0.00,,2013-04-01 03:53:00,
2013-04-01 05:02:00,41.0,19.0,29.54,ESE,115,7.0,14.0,40,0.00,,,0.00,,2013-04-01 04:02:00,
2013-04-01 05:12:00,41.0,19.0,29.54,ESE,115,7.0,14.0,40,0.00,,,0.00,,2013-04-01 04:12:00,
2013-04-01 05:23:00,41.0,19.0,29.54,ENE,78,7.0,21.0,40,0.00,,,0.00,,2013-04-01 04:23:00,
2013-04-01 05:32:00,41.0,19.0,29.54,ESE,120,6.0,15.0,40,0.00,,,0.00,,2013-04-01 04:32:00,
2013-04-01 05:42:00,41.0,19.0,29.54,ESE,120,6.0,15.0,40,0.00,,,0.00,,2013-04-01 04:42:00,
2013-04-01 05:52:00,41.0,19.0,29.54,SE,142,7.0,14.0,41,0.00,,,0.00,,2013-04-01 04:52:00,
2013-04-01 06:02:00,41.0,19.0,29.54,ESE,122,7.0,13.0,40,0.00,,,0.00,,2013-04-01 05:02:00,
2013-04-01 06:12:00,41.0,19.0,29.54,ESE,122,7.0,13.0,40,0.00,,,0.00,,2013-04-01 05:12:00,
2013-04-01 06:21:00,41.0,19.0,29.54,East,86,7.0,18.0,40,0.00,,,0.00,,2013-04-01 05:21:00,
2013-04-01 06:32:00,40.0,18.0,29.54,SE,131,9.0,23.0,40,0.00,,,0.00,,2013-04-01 05:32:00,
2013-04-01 06:42:00,40.0,18.0,29.54,SE,131,9.0,23.0,40,0.00,,,0.00,,2013-04-01 05:42:00,
2013-04-01 06:52:00,40.0,18.0,29.54,ESE,113,8.0,21.0,41,0.00,,,0.00,,2013-04-01 05:52:00,
2013-04-01 07:01:00,40.0,18.0,29.54,ESE,107,9.0,15.0,41,0.00,,,0.00,,2013-04-01 06:01:00,
2013-04-01 07:12:00,40.0,18.0,29.54,ESE,107,9.0,15.0,41,0.00,,,0.00,,2013-04-01 06:12:00,
2013-04-01 07:22:00,40.0,19.0,29.54,ESE,105,9.0,21.0,42,0.00,,,0.00,,2013-04-01 06:22:00,
2013-04-01 07:32:00,40.0,18.0,29.54,East,86,7.0,18.0,41,0.00,,,0.00,,2013-04-01 06:32:00,
2013-04-01 07:42:00,40.0,18.0,29.54,East,86,7.0,18.0,41,0.00,,,0.00,,2013-04-01 06:42:00,
2013-04-01 07:52:00,41.0,20.0,29.54,ESE,123,7.0,15.0,43,0.00,,,0.00,,2013-04-01 06:52:00,
2013-04-01 08:02:00,41.0,20.0,29.54,SE,131,6.0,23.0,43,0.00,,,0.00,,2013-04-01 07:02:00,
2013-04-01 08:12:00,41.0,20.0,29.54,SE,131,6.0,23.0,43,0.00,,,0.00,,2013-04-01 07:12:00,
2013-04-01 08:21:00,41.0,20.0,29.54,ESE,103,7.0,20.0,42,0.00,,,0.00,,2013-04-01 07:21:00,
2013-04-01 08:32:00,41.0,19.0,29.54,SE,128,8.0,17.0,41,0.00,,,0.00,,2013-04-01 07:32:00,
2013-04-01 08:42:00,41.0,19.0,29.54,SE,128,8.0,17.0,41,0.00,,,0.00,,2013-04-01 07:42:00,
2013-04-01 08:52:00,41.0,19.0,29.57,SE,142,9.0,17.0,41,0.00,,,0.00,,2013-04-01 07:52:00,
2013-04-01 09:02:00,41.0,18.0,29.57,SE,129,7.0,15.0,39,0.00,,,0.00,,2013-04-01 08:02:00,
2013-04-01 09:11:00,41.0,18.0,29.57,SE,129,7.0,15.0,39,0.00,,,0.00,,2013-04-01 08:11:00,
2013-04-01 09:21:00,41.0,18.0,29.57,ESE,118,7.0,16.0,39,0.00,,,0.00,,2013-04-01 08:21:00,
2013-04-01 09:31:00,42.0,19.0,29.57,ESE,105,8.0,16.0,39,0.00,,,0.00,,2013-04-01 08:31:00,
2013-04-01 09:42:00,42.0,19.0,29.57,ESE,105,8.0,16.0,39,0.00,,,0.00,,2013-04-01 08:42:00,
2013-04-01 09:52:00,42.0,19.0,29.57,East,95,7.0,20.0,39,0.00,,,0.00,,2013-04-01 08:52:00,
2013-04-01 10:01:00,43.0,19.0,29.57,East,83,8.0,13.0,38,0.00,,,0.00,,2013-04-01 09:01:00,
2013-04-01 10:12:00,43.0,19.0,29.57,East,83,8.0,13.0,38,0.00,,,0.00,,2013-04-01 09:12:00,
2013-04-01 10:21:00,44.0,17.0,29.57,SE,129,7.0,17.0,33,0.00,,,0.00,,2013-04-01 09:21:00,
2013-04-01 10:33:00,43.0,14.0,29.57,ESE,112,7.0,17.0,31,0.00,,,0.00,,2013-04-01 09:33:00,
2013-04-01 10:42:00,43.0,14.0,29.57,ESE,112,7.0,17.0,31,0.00,,,0.00,,2013-04-01 09:42:00,
2013-04-01 10:52:00,44.0,17.0,29.57,East,86,8.0,18.0,33,0.00,,,0.00,,2013-04-01 09:52:00,
2013-04-01 11:02:00,44.0,17.0,29.57,East,82,9.0,17.0,33,0.00,,,0.00,,2013-04-01 10:02:00,
2013-04-01 11:12:00,44.0,17.0,29.57,East,82,9.0,17.0,33,0.00,,,0.00,,2013-04-01 10:12:00,
2013-04-01 11:22:00,44.0,19.0,29.57,SE,128,8.0,20.0,36,0.00,,,0.00,,2013-04-01 10:22:00,
2013-04-01 11:32:00,45.0,18.0,29.57,SE,133,6.0,24.0,33,0.00,,,0.00,,2013-04-01 10:32:00,
2013-04-01 11:42:00,45.0,18.0,29.57,SE,133,6.0,24.0,33,0.00,,,0.00,,2013-04-01 10:42:00,
2013-04-01 11:53:00,45.0,20.0,29.57,SE,128,8.0,22.0,36,0.00,,,0.00,,2013-04-01 10:53:00,
2013-04-01 12:02:00,45.0,17.0,29.57,SE,126,8.0,13.0,32,0.00,,,0.00,,2013-04-01 11:02:00,
2013-04-01 12:11:00,45.0,17.0,29.57,SE,126,8.0,13.0,32,0.00,,,0.00,,2013-04-01 11:11:00,
2013-04-01 12:22:00,46.0,16.0,29.60,SE,136,7.0,21.0,29,0.00,,,0.00,,2013-04-01 11:22:00,
2013-04-01 12:32:00,45.0,17.0,29.60,West,279,6.0,13.0,32,0.00,,,0.00,,2013-04-01 11:32:00,
2013-04-01 12:42:00,45.0,17.0,29.60,West,279,6.0,13.0,32,0.00,,,0.00,,2013-04-01 11:42:00,
2013-04-01 12:53:00,45.0,17.0,29.60,West,279,6.0,13.0,32,0.00,,,0.00,,2013-04-01 11:53:00,
2013-04-01 13:02:00,45.0,17.0,29.60,West,279,6.0,13.0,32,0.00,,,0.00,,2013-04-01 12:02:00,
2013-04-01 13:11:00,45.0,17.0,29.60,West,279,6.0,13.0,32,0.00,,,0.00,,2013-04-01 12:11:00,
2013-04-01 13:23:00,45.0,18.0,29.60,SSE,156,8.0,15.0,33,0.00,,,0.00,,2013-04-01 12:23:00,
2013-04-01 13:32:00,46.0,17.0,29.60,NNE,13,6.0,18.0,31,0.00,,,0.00,,2013-04-01 12:32:00,
2013-04-01 13:42:00,46.0,17.0,29.60,NNE,13,6.0,18.0,31,0.00,,,0.00,,2013-04-01 12:42:00,
2013-04-01 13:52:00,45.0,17.0,29.60,ENE,57,9.0,15.0,32,0.00,,,0.00,,2013-04-01 12:52:00,
2013-04-01 14:02:00,46.0,18.0,29.60,ESE,115,5.0,10.0,32,0.00,,,0.00,,2013-04-01 13:02:00,
2013-04-01 14:11:00,46.0,18.0,29.60,ESE,115,5.0,10.0,32,0.00,,,0.00,,2013-04-01 13:11:00,
2013-04-01 14:21:00,45.0,16.0,29.60,ESE,118,7.0,17.0,31,0.00,,,0.00,,2013-04-01 13:21:00,
2013-04-01 14:31:00,44.0,15.0,29.60,ESE,117,13.0,20.0,31,0.00,,,0.00,,2013-04-01 13:31:00,
2013-04-01 14:41:00,44.0,15.0,29.60,ESE,117,13.0,20.0,31,0.00,,,0.00,,2013-04-01 13:41:00,
2013-04-01 14:52:00,45.0,16.0,29.60,ESE,107,6.0,23.0,31,0.00,,,0.00,,2013-04-01 13:52:00,
2013-04-01 15:02:00,45.0,18.0,29.60,SE,143,7.0,14.0,34,0.00,,,0.00,,2013-04-01 14:02:00,
2013-04-01 15:11:00,45.0,18.0,29.60,SE,143,7.0,14.0,34,0.00,,,0.00,,2013-04-01 14:11:00,
2013-04-01 15:21:00,44.0,20.0,29.60,NE,49,5.0,15.0,38,0.00,,,0.00,,2013-04-01 14:21:00,
2013-04-01 15:32:00,45.0,21.0,29.60,ESE,113,4.0,10.0,38,0.00,,,0.00,,2013-04-01 14:32:00,
2013-04-01 15:42:00,45.0,21.0,29.60,ESE,113,4.0,10.0,38,0.00,,,0.00,,2013-04-01 14:42:00,
2013-04-01 15:52:00,45.0,19.0,29.60,ESE,120,5.0,10.0,35,0.00,,,0.00,,2013-04-01 14:52:00,
2013-04-01 16:02:00,45.0,19.0,29.60,SE,125,4.0,10.0,35,0.00,,,0.00,,2013-04-01 15:02:00,
2013-04-01 16:11:00,45.0,19.0,29.60,SE,125,4.0,10.0,35,0.00,,,0.00,,2013-04-01 15:11:00,
2013-04-01 16:22:00,45.0,19.0,29.60,East,91,5.0,13.0,35,0.00,,,0.00,,2013-04-01 15:22:00,
2013-04-01 16:33:00,44.0,19.0,29.60,SSE,164,6.0,9.0,37,0.00,,,0.00,,2013-04-01 15:33:00,
2013-04-01 16:42:00,44.0,19.0,29.60,SSE,164,6.0,9.0,37,0.00,,,0.00,,2013-04-01 15:42:00,
2013-04-01 16:53:00,44.0,19.0,29.60,ENE,65,6.0,9.0,37,0.00,,,0.00,,2013-04-01 15:53:00,
2013-04-01 17:02:00,44.0,19.0,29.60,ENE,65,6.0,9.0,37,0.00,,,0.00,,2013-04-01 16:02:00,
2013-04-01 17:12:00,44.0,19.0,29.60,ENE,65,6.0,9.0,37,0.00,,,0.00,,2013-04-01 16:12:00,
2013-04-01 17:22:00,44.0,20.0,29.60,SE,126,5.0,21.0,38,0.00,,,0.00,,2013-04-01 16:22:00,
2013-04-01 17:33:00,43.0,19.0,29.60,NNW,344,7.0,22.0,38,0.00,,,0.00,,2013-04-01 16:33:00,
2013-04-01 17:43:00,43.0,19.0,29.60,NNW,344,7.0,22.0,38,0.00,,,0.00,,2013-04-01 16:43:00,
2013-04-01 17:52:00,43.0,18.0,29.60,ESE,103,6.0,14.0,36,0.00,,,0.00,,2013-04-01 16:52:00,
2013-04-01 18:02:00,43.0,19.0,29.60,East,93,6.0,12.0,38,0.00,,,0.00,,2013-04-01 17:02:00,
2013-04-01 18:11:00,43.0,19.0,29.60,East,93,6.0,12.0,38,0.00,,,0.00,,2013-04-01 17:11:00,
2013-04-01 18:22:00,42.0,18.0,29.60,South,183,3.0,8.0,37,0.00,,,0.00,,2013-04-01 17:22:00,
2013-04-01 18:31:00,42.0,18.0,29.60,South,183,3.0,8.0,37,0.00,,,0.00,,2013-04-01 17:31:00,
2013-04-01 18:41:00,42.0,18.0,29.60,South,183,3.0,8.0,37,0.00,,,0.00,,2013-04-01 17:41:00,
2013-04-01 18:52:00,42.0,15.0,29.60,East,93,9.0,17.0,33,0.00,,,0.00,,2013-04-01 17:52:00,
2013-04-01 19:01:00,41.0,15.0,29.63,East,101,5.0,10.0,35,0.00,,,0.00,,2013-04-01 18:01:00,
2013-04-01 19:11:00,41.0,15.0,29.63,East,101,5.0,10.0,35,0.00,,,0.00,,2013-04-01 18:11:00,
2013-04-01 19:22:00,41.0,16.0,29.63,ESE,119,5.0,24.0,36,0.00,,,0.00,,2013-04-01 18:22:00,
2013-04-01 19:32:00,41.0,17.0,29.66,SE,133,5.0,13.0,38,0.00,,,0.00,,2013-04-01 18:32:00,
2013-04-01 19:42:00,41.0,17.0,29.66,SE,133,5.0,13.0,38,0.00,,,0.00,,2013-04-01 18:42:00,
2013-04-01 19:52:00,41.0,17.0,29.66,East,94,9.0,17.0,38,0.00,,,0.00,,2013-04-01 18:52:00,
2013-04-01 20:02:00,41.0,17.0,29.66,East,83,7.0,17.0,37,0.00,,,0.00,,2013-04-01 19:02:00,
2013-04-01 20:12:00,41.0,17.0,29.66,East,83,7.0,17.0,37,0.00,,,0.00,,2013-04-01 19:12:00,
2013-04-01 20:22:00,41.0,18.0,29.66,East,82,4.0,10.0,39,0.00,,,0.00,,2013-04-01 19:22:00,
2013-04-01 20:32:00,41.0,17.0,29.66,East,95,7.0,17.0,38,0.00,,,0.00,,2013-04-01 19:32:00,
2013-04-01 20:41:00,41.0,17.0,29.66,East,95,7.0,17.0,38,0.00,,,0.00,,2013-04-01 19:41:00,
2013-04-01 20:53:00,41.0,17.0,29.66,ESE,106,7.0,14.0,37,0.00,,,0.00,,2013-04-01 19:53:00,
2013-04-01 21:01:00,41.0,17.0,29.66,SE,128,6.0,14.0,37,0.00,,,0.00,,2013-04-01 20:01:00,
2013-04-01 21:11:00,41.0,17.0,29.66,SE,128,6.0,14.0,37,0.00,,,0.00,,2013-04-01 20:11:00,
2013-04-01 21:22:00,41.0,17.0,29.66,ENE,68,5.0,8.0,38,0.00,,,0.00,,2013-04-01 20:22:00,
2013-04-01 21:32:00,41.0,17.0,29.66,ESE,107,6.0,17.0,38,0.00,,,0.00,,2013-04-01 20:32:00,
2013-04-01 21:42:00,41.0,17.0,29.66,ESE,107,6.0,17.0,38,0.00,,,0.00,,2013-04-01 20:42:00,
2013-04-01 21:52:00,41.0,15.0,29.66,SE,140,4.0,20.0,34,0.00,,,0.00,,2013-04-01 20:52:00,
2013-04-01 22:02:00,41.0,13.0,29.66,ESE,104,7.0,14.0,32,0.00,,,0.00,,2013-04-01 21:02:00,
2013-04-01 22:11:00,41.0,13.0,29.66,ESE,104,7.0,14.0,32,0.00,,,0.00,,2013-04-01 21:11:00,
2013-04-01 22:22:00,42.0,16.0,29.66,ESE,120,5.0,15.0,35,0.00,,,0.00,,2013-04-01 21:22:00,
2013-04-01 22:32:00,42.0,16.0,29.66,East,92,8.0,17.0,34,0.00,,,0.00,,2013-04-01 21:32:00,
2013-04-01 22:43:00,42.0,16.0,29.66,East,92,8.0,17.0,34,0.00,,,0.00,,2013-04-01 21:43:00,
2013-04-01 22:53:00,42.0,18.0,29.66,ENE,75,7.0,13.0,37,0.00,,,0.00,,2013-04-01 21:53:00,
2013-04-01 23:02:00,42.0,18.0,29.66,SE,136,9.0,15.0,38,0.00,,,0.00,,2013-04-01 22:02:00,
2013-04-01 23:12:00,42.0,18.0,29.66,SE,136,9.0,15.0,38,0.00,,,0.00,,2013-04-01 22:12:00,
2013-04-01 23:22:00,42.0,18.0,29.69,ESE,108,7.0,10.0,38,0.00,,,0.00,,2013-04-01 22:22:00,
2013-04-01 23:32:00,42.0,18.0,29.66,WSW,250,4.0,7.0,38,0.00,,,0.00,,2013-04-01 22:32:00,
2013-04-01 23:42:00,42.0,18.0,29.66,WSW,250,4.0,7.0,38,0.00,,,0.00,,2013-04-01 22:42:00,
2013-04-01 23:52:00,42.0,19.0,29.69,ENE,73,5.0,9.0,39,0.00,,,0.00,,2013-04-01 22:52:00,